GW6490 Weather Reports


time (UTC)temp
C
wind
direction
speed
KPH
gust
KPH
rain 1hr
cm
rain 24hr
cm
rain mn
cm
humidity
%
barometer
mb
20260504190947 18 94 3.2 3.2 0.00 0.00 0.00 24 1009.7
20260504190443 18 303 4.8 4.8 0.00 0.00 0.00 23 1009.9
20260504185940 20 205 3.2 3.2 0.00 0.00 0.00 23 1010.0
20260504185437 18 96 0.0 0.0 0.00 0.00 0.00 24 1010.1
20260504184933 18 276 3.2 3.2 0.00 0.00 0.00 24 1010.0
20260504184429 18 106 0.0 0.0 0.00 0.00 0.00 24 1009.9
20260504183925 18 147 1.6 1.6 0.00 0.00 0.00 23 1010.1
20260504183423 18 40 1.6 3.2 0.00 0.00 0.00 24 1010.3
20260504182921 18 95 3.2 4.8 0.00 0.00 0.00 24 1010.5
20260504182417 18 88 0.0 0.0 0.00 0.00 0.00 25 1010.1
20260504181914 18 90 0.0 0.0 0.00 0.00 0.00 24 1010.4
20260504181411 18 69 1.6 1.6 0.00 0.00 0.00 24 1010.4
20260504180910 18 95 6.4 6.4 0.00 0.00 0.00 25 1010.1
20260504180408 18 99 4.8 6.4 0.00 0.00 0.00 24 1010.4
20260504175906 18 93 1.6 3.2 0.00 0.00 0.00 23 1010.4
20260504175403 18 103 0.0 1.6 0.00 0.00 0.00 24 1010.7
20260504174900 18 188 1.6 3.2 0.00 0.00 0.00 26 1010.7
20260504174358 17 100 1.6 1.6 0.00 0.00 0.00 25 1010.6
20260504173855 17 212 4.8 4.8 0.00 0.00 0.00 25 1010.7
20260504173351 16 99 1.6 1.6 0.00 0.00 0.00 26 1010.7
20260504172849 16 85 0.0 0.0 0.00 0.00 0.00 28 1010.7
20260504172345 16 93 0.0 1.6 0.00 0.00 0.00 25 1011.1
20260504171841 15 101 0.0 1.6 0.00 0.00 0.00 29 1011.1
20260504171338 16 202 3.2 4.8 0.00 0.00 0.00 28 1011.1
20260504170835 16 129 0.0 0.0 0.00 0.00 0.00 29 1011.0
20260504170332 15 89 1.6 1.6 0.00 0.00 0.00 30 1011.2
20260504160251 12 99 0.0 0.0 0.00 0.00 0.00 35 1011.9
20260504150716 6 193 1.6 1.6 0.00 0.00 0.00 47 1012.3
20260504150213 6 172 0.0 1.6 0.00 0.00 0.00 48 1012.4
20260504141142 3 125 0.0 0.0 0.00 0.00 0.00 57 1012.9
20260504140639 4 127 1.6 1.6 0.00 0.00 0.00 56 1012.8
20260504140134 4 95 0.0 0.0 0.00 0.00 0.00 54 1013.2
20260504130602 0 117 0.0 0.0 0.00 0.00 0.00 73 1012.7
20260504110450 0 127 0.0 0.0 0.00 0.00 0.00 67 1012.6
20260504100413 0 121 0.0 0.0 0.00 0.00 0.00 67 1012.6
20260504081806 3 141 0.0 1.6 0.00 0.00 0.00 55 1012.4
20260504081302 3 96 0.0 0.0 0.00 0.00 0.00 53 1012.6
20260504080759 3 90 0.0 0.0 0.00 0.00 0.00 52 1012.3
20260504080255 3 151 0.0 1.6 0.00 0.00 0.00 52 1012.4
20260504070223 5 94 0.0 0.0 0.00 0.00 0.00 46 1012.8
20260504060143 7 81 0.0 0.0 0.00 0.00 0.00 40 1012.8
20260504050611 9 86 0.0 0.0 0.00 0.00 0.00 32 1012.9
20260504050108 9 94 1.6 1.6 0.00 0.00 0.00 31 1013.0
20260504045605 9 107 0.0 0.0 0.00 0.00 0.00 31 1012.8
20260504045100 9 92 0.0 0.0 0.00 0.00 0.00 32 1012.7
20260504044558 9 256 1.6 3.2 0.00 0.00 0.00 31 1012.8
20260504044055 9 75 4.8 4.8 0.00 0.00 0.00 31 1012.9
20260504043552 9 45 1.6 3.2 0.00 0.00 0.00 32 1012.9
20260504043049 9 50 3.2 4.8 0.00 0.00 0.00 32 1012.9
20260504042546 10 107 3.2 4.8 0.00 0.00 0.00 32 1012.9
20260504042043 10 75 0.0 1.6 0.00 0.00 0.00 31 1012.8
20260504041539 10 20 4.8 9.7 0.00 0.00 0.00 31 1012.9
20260504041035 10 142 3.2 4.8 0.00 0.00 0.00 32 1012.7
20260504040533 10 75 9.7 12.9 0.00 0.00 0.00 32 1012.8
20260504040029 10 94 3.2 4.8 0.00 0.00 0.00 31 1013.2
20260504035526 10 28 0.0 1.6 0.00 0.00 0.00 32 1013.0
20260504035022 10 122 4.8 6.4 0.00 0.00 0.00 31 1012.8
20260504034520 10 78 6.4 11.3 0.00 0.00 0.00 32 1012.7
20260504034017 10 89 6.4 9.7 0.00 0.00 0.00 31 1012.7
20260504033515 10 114 1.6 3.2 0.00 0.00 0.00 31 1012.8
20260504033012 11 114 1.6 3.2 0.00 0.00 0.00 31 1012.4
20260504032509 11 102 1.6 1.6 0.00 0.00 0.00 31 1012.6
20260504032005 11 101 6.4 6.4 0.00 0.00 0.00 32 1012.7
20260504031502 11 54 3.2 4.8 0.00 0.00 0.00 31 1012.7
20260504030959 11 124 0.0 0.0 0.00 0.00 0.00 30 1012.7
20260504030456 11 107 3.2 6.4 0.00 0.00 0.00 30 1012.6
20260504025952 11 109 0.0 1.6 0.00 0.00 0.00 31 1012.6
20260504025449 11 98 1.6 4.8 0.00 0.00 0.00 30 1012.6
20260504024946 11 86 3.2 3.2 0.00 0.00 0.00 30 1012.3
20260504024443 12 112 0.0 0.0 0.00 0.00 0.00 29 1012.4
20260504023940 12 85 1.6 1.6 0.00 0.00 0.00 28 1012.4
20260504023437 12 88 0.0 0.0 0.00 0.00 0.00 29 1012.2
20260504022932 13 93 0.0 0.0 0.00 0.00 0.00 28 1012.3
20260504022429 13 82 1.6 3.2 0.00 0.00 0.00 28 1012.4
20260504021925 13 102 1.6 3.2 0.00 0.00 0.00 27 1012.2
20260504021423 15 93 1.6 1.6 0.00 0.00 0.00 26 1012.1
20260504020920 16 101 0.0 0.0 0.00 0.00 0.00 26 1012.2
20260504020416 17 96 1.6 3.2 0.00 0.00 0.00 23 1012.1
20260504015913 17 120 0.0 0.0 0.00 0.00 0.00 18 1012.1
20260504015409 17 99 0.0 1.6 0.00 0.00 0.00 19 1012.1
20260504014906 18 129 0.0 0.0 0.00 0.00 0.00 19 1012.2
20260504014402 18 203 1.6 1.6 0.00 0.00 0.00 18 1012.2
20260504013859 19 265 1.6 1.6 0.00 0.00 0.00 17 1012.1
20260504013357 19 133 0.0 0.0 0.00 0.00 0.00 18 1012.2
20260504012853 19 184 1.6 1.6 0.00 0.00 0.00 17 1012.2
20260504012351 19 122 1.6 1.6 0.00 0.00 0.00 17 1012.3
20260504011848 20 215 1.6 3.2 0.00 0.00 0.00 16 1012.3
20260504011344 20 203 1.6 1.6 0.00 0.00 0.00 16 1012.4
20260504010841 20 178 1.6 1.6 0.00 0.00 0.00 16 1012.6
20260504010336 21 214 3.2 4.8 0.00 0.00 0.00 15 1012.6
20260504005833 20 261 1.6 1.6 0.00 0.00 0.00 17 1012.4
20260504005330 20 216 4.8 4.8 0.00 0.00 0.00 17 1012.3
20260504004827 20 204 3.2 3.2 0.00 0.00 0.00 17 1012.2
20260504004325 20 84 1.6 1.6 0.00 0.00 0.00 16 1012.7
20260504003821 20 267 11.3 14.5 0.00 0.00 0.00 15 1012.3
20260504003318 20 144 0.0 1.6 0.00 0.00 0.00 15 1012.6
20260504002815 20 283 6.4 9.7 0.00 0.00 0.00 15 1012.7
20260504002312 20 257 4.8 4.8 0.00 0.00 0.00 16 1012.7
20260504001809 21 258 3.2 3.2 0.00 0.00 0.00 15 1012.7
20260504001306 21 281 3.2 4.8 0.00 0.00 0.00 15 1012.7
20260504000803 21 216 4.8 4.8 0.00 0.00 0.00 15 1012.6
20260504000300 21 276 4.8 4.8 0.00 0.00 0.00 15 1012.9
20260503235758 21 233 9.7 11.3 0.00 0.00 0.00 15 1012.7
20260503235255 21 249 4.8 4.8 0.00 0.00 0.00 15 1012.8
20260503234753 22 184 4.8 4.8 0.00 0.00 0.00 15 1012.8
20260503234251 22 242 1.6 3.2 0.00 0.00 0.00 17 1012.7
20260503233748 21 206 1.6 3.2 0.00 0.00 0.00 17 1012.9
20260503233243 21 216 4.8 4.8 0.00 0.00 0.00 18 1012.9
20260503232741 21 181 3.2 3.2 0.00 0.00 0.00 15 1012.7
20260503232238 21 266 9.7 12.9 0.00 0.00 0.00 15 1012.9
20260503231736 20 146 0.0 1.6 0.00 0.00 0.00 16 1012.8
20260503231232 20 267 3.2 3.2 0.00 0.00 0.00 16 1012.8
20260503230728 19 140 1.6 1.6 0.00 0.00 0.00 17 1012.9
20260503230226 19 90 0.0 0.0 0.00 0.00 0.00 17 1013.3
20260503225723 18 93 0.0 1.6 0.00 0.00 0.00 19 1012.9
20260503225223 18 234 4.8 4.8 0.00 0.00 0.00 18 1013.2
20260503224720 19 230 3.2 3.2 0.00 0.00 0.00 21 1013.3
20260503224218 18 97 0.0 1.6 0.00 0.00 0.00 19 1013.4
20260503223716 19 175 1.6 1.6 0.00 0.00 0.00 20 1013.3
20260503223213 19 264 3.2 3.2 0.00 0.00 0.00 18 1013.5
20260503222709 20 96 3.2 3.2 0.00 0.00 0.00 17 1013.2
20260503222207 20 121 0.0 0.0 0.00 0.00 0.00 17 1013.4
20260503221706 20 173 0.0 0.0 0.00 0.00 0.00 17 1013.4
20260503221203 20 84 0.0 0.0 0.00 0.00 0.00 17 1013.4
20260503220659 20 78 1.6 1.6 0.00 0.00 0.00 18 1013.5
20260503220156 20 160 1.6 1.6 0.00 0.00 0.00 18 1013.3
20260503215653 21 191 3.2 3.2 0.00 0.00 0.00 16 1013.5
20260503215149 20 102 1.6 1.6 0.00 0.00 0.00 15 1013.6
20260503214648 20 123 3.2 3.2 0.00 0.00 0.00 16 1013.8
20260503214144 20 80 0.0 1.6 0.00 0.00 0.00 15 1013.8
20260503213643 20 69 1.6 1.6 0.00 0.00 0.00 15 1013.5
20260503213139 20 86 4.8 4.8 0.00 0.00 0.00 15 1013.8
20260503212637 19 99 1.6 1.6 0.00 0.00 0.00 16 1014.0
20260503212134 20 120 1.6 3.2 0.00 0.00 0.00 14 1014.2
20260503211632 20 248 6.4 9.7 0.00 0.00 0.00 16 1014.0
20260503211127 22 201 3.2 3.2 0.00 0.00 0.00 15 1014.1
20260503210624 21 108 1.6 1.6 0.00 0.00 0.00 17 1014.1
20260503210120 20 230 1.6 1.6 0.00 0.00 0.00 17 1014.1
20260503205616 20 158 1.6 3.2 0.00 0.00 0.00 17 1014.4
20260503205113 20 189 1.6 3.2 0.00 0.00 0.00 18 1014.6
20260503204609 20 99 1.6 1.6 0.00 0.00 0.00 17 1014.6
20260503204107 20 110 1.6 1.6 0.00 0.00 0.00 17 1014.6
20260503203604 20 95 3.2 4.8 0.00 0.00 0.00 18 1014.8
20260503203101 20 119 1.6 1.6 0.00 0.00 0.00 17 1014.5
20260503202559 20 229 3.2 4.8 0.00 0.00 0.00 17 1014.6
20260503202056 21 228 8.0 11.3 0.00 0.00 0.00 16 1014.6
20260503201554 21 124 0.0 1.6 0.00 0.00 0.00 17 1014.8
20260503201051 22 189 4.8 9.7 0.00 0.00 0.00 16 1014.7
20260503200547 22 250 1.6 1.6 0.00 0.00 0.00 14 1015.0
20260503200044 20 111 0.0 1.6 0.00 0.00 0.00 17 1014.7
20260503195541 19 300 1.6 1.6 0.00 0.00 0.00 18 1015.1
20260503195038 19 259 6.4 9.7 0.00 0.00 0.00 18 1015.1
20260503194535 20 270 8.0 11.3 0.00 0.00 0.00 17 1015.1
20260503194035 20 266 4.8 6.4 0.00 0.00 0.00 16 1015.0
20260503193532 20 141 1.6 1.6 0.00 0.00 0.00 16 1015.0
20260503193027 21 111 1.6 1.6 0.00 0.00 0.00 16 1015.3
20260503192523 21 118 3.2 4.8 0.00 0.00 0.00 19 1015.3
20260503192020 20 97 0.0 1.6 0.00 0.00 0.00 17 1015.5
20260503191517 19 75 3.2 3.2 0.00 0.00 0.00 18 1015.6